User: anonymous   Login
Location: Casalecchio di Reno
(44.4760°N, 11.2757°E)
Time: 15:21:42
(UTC+02:00)
Language:

DX 1 - Orbit

View from above orbital plane
View from above orbital plane
View from above satellite
View from above satellite

Ground track
Ground track

The orbit data is extracted from the following two-line orbital elements,

1 40071U 14037C   24170.16548677  .00002247  00000-0  27090-3 0  9991
2 40071  98.3344  82.6951 0009232 115.2693 244.9478 14.84894742537788
Epoch (UTC): 18 June 2024 03:58:18
Eccentricity: 0.0009232
inclination: 98.3344°
perigee height: 607 km
apogee height: 620 km
right ascension of ascending node: 82.6951°
argument of perigee: 115.2693°
revolutions per day: 14.84894742
mean anomaly at epoch: 244.9478°
orbit number at epoch: 53778

The dashed part of the orbit path shows where the satellite is in the earth's shadow,  

DLR